Погода в Сагайдаке

Украина / Полтавская область     49°43′42″N   33°58′59″E
темп.,
°C
ветер,
м/с
пор.,
м/с
влажн.,
%
обл.,
%
осадки,
мм/ч
давл.,
гПа
погр.,
м
18 октября, пн
пн1800:00+6сз35825 0.0 101982
03:00+4сз358442 0.0 101992
06:00+4сз3579100 0.0 1019103
09:00+6зсз356873 0.0 1020262
12:00+10зсз4550100 0.0 10191208
15:00+11зсз5749100 0.0 10181423
18:00+9зсз4760100 0.0 1019320
21:00+8з3766100 0.0 1019283
19 октября, вт
вт1900:00+7з387397 0.0 1019297
03:00+6сз5988100 1.0 1019823
06:00+5ссз369136 0.2 1020190
09:00+5ссз510780 0.2 1021520
12:00+9ссз79515 0.0 10231371
15:00+9сз79405 0.0 10231632
18:00+6сз49515 0.0 1024242
21:00+4зсз410635 0.0 1025225
20 октября, ср
ср2000:00+3зсз38765 0.0 1026161
03:00+2зсз368072 0.0 102797
06:00+2сз3379100 0.0 102858
09:00+4сз226992 0.0 1028168
12:00+9юз3349100 0.0 1027866
15:00+10юз4544100 0.0 1026884
18:00+8ю3643100 0.0 1025171
21:00+8ю51236100 0.0 1023286
21 октября, чт
чт2100:00+8ююз61447100 0.0 1022392
03:00+9ююз71473100 0.0 1020495
06:00+9ююз71583100 0.0 1019499
09:00+10ююз71485100 0.0 1019543
12:00+14юз91263100 0.0 1018790
15:00+16юз9135284 0.0 10161016
18:00+14ююз81456100 0.0 1014697
21:00+12ююз81565100 0.0 1014598
22 октября, пт
пт2200:00+10ююз7167648 0.0 1013500
03:00+10ююз7148912 0.0 1012434
06:00+9юз510955 0.0 1013266
09:00+10юз488462 0.0 1013260
12:00+16юз45545 0.0 1013630
15:00+18юз454580 0.0 1013981
18:00+14ююз336198 0.0 101328
21:00+13ююв336986 0.0 101328